TimeEST,TemperatureF,Dew PointF,Humidity,Sea Level PressureIn,VisibilityMPH,Wind Direction,Wind SpeedMPH,Gust SpeedMPH,PrecipitationIn,Events,Conditions,WindDirDegrees,DateUTC
12:53 AM,26.1,9.0,49,30.42,10.0,WSW,4.6,-,N/A,,Clear,240,2013-01-19 05:53:00
1:53 AM,25.0,10.0,53,30.41,10.0,SW,3.5,-,N/A,,Clear,220,2013-01-19 06:53:00
2:53 AM,28.0,10.9,49,30.38,10.0,Variable,5.8,-,N/A,,Clear,0,2013-01-19 07:53:00
3:53 AM,28.9,12.0,49,30.35,10.0,Variable,4.6,-,N/A,,Clear,0,2013-01-19 08:53:00
4:53 AM,28.0,15.1,58,30.34,10.0,SW,5.8,-,N/A,,Mostly Cloudy,230,2013-01-19 09:53:00
5:53 AM,28.0,16.0,61,30.33,10.0,SW,4.6,-,N/A,,Mostly Cloudy,230,2013-01-19 10:53:00
6:53 AM,28.9,18.0,64,30.32,10.0,SW,5.8,-,N/A,,Scattered Clouds,220,2013-01-19 11:53:00
7:53 AM,30.0,19.9,66,30.30,10.0,SW,6.9,-,N/A,,Mostly Cloudy,230,2013-01-19 12:53:00
8:53 AM,32.0,21.0,64,30.30,10.0,SW,5.8,-,N/A,,Clear,230,2013-01-19 13:53:00
9:53 AM,36.0,23.0,59,30.29,10.0,West,8.1,-,N/A,,Clear,260,2013-01-19 14:53:00
10:53 AM,39.9,24.1,53,30.24,10.0,SW,10.4,19.6,N/A,,Clear,220,2013-01-19 15:53:00
11:53 AM,44.1,24.1,45,30.19,10.0,WSW,12.7,20.7,N/A,,Clear,240,2013-01-19 16:53:00
12:53 PM,45.0,23.0,42,30.15,10.0,WSW,11.5,19.6,N/A,,Clear,240,2013-01-19 17:53:00
1:53 PM,46.9,24.1,41,30.12,10.0,SW,8.1,20.7,N/A,,Clear,230,2013-01-19 18:53:00
2:53 PM,48.9,23.0,36,30.09,10.0,WSW,8.1,17.3,N/A,,Clear,240,2013-01-19 19:53:00
3:53 PM,50.0,23.0,35,30.08,10.0,WSW,6.9,-,N/A,,Clear,250,2013-01-19 20:53:00
4:53 PM,48.9,23.0,36,30.06,10.0,Variable,6.9,-,N/A,,Overcast,0,2013-01-19 21:53:00
5:53 PM,48.0,24.1,39,30.06,10.0,SW,6.9,-,N/A,,Partly Cloudy,220,2013-01-19 22:53:00
6:53 PM,46.9,25.0,42,30.06,10.0,Variable,4.6,-,N/A,,Clear,0,2013-01-19 23:53:00
7:53 PM,45.0,25.0,46,30.04,10.0,WSW,3.5,-,N/A,,Clear,250,2013-01-20 00:53:00
8:53 PM,44.1,25.0,47,30.02,10.0,WSW,4.6,-,N/A,,Clear,250,2013-01-20 01:53:00
9:53 PM,44.1,26.1,49,29.99,10.0,Variable,5.8,-,N/A,,Clear,0,2013-01-20 02:53:00
10:53 PM,43.0,27.0,53,29.97,10.0,WSW,6.9,-,N/A,,Clear,240,2013-01-20 03:53:00
11:53 PM,42.1,27.0,55,29.94,10.0,SW,5.8,-,N/A,,Clear,230,2013-01-20 04:53:00